TimeEST,TemperatureF,Dew PointF,Humidity,Sea Level PressureIn,VisibilityMPH,Wind Direction,Wind SpeedMPH,Gust SpeedMPH,PrecipitationIn,Events,Conditions,WindDirDegrees,DateUTC
12:53 AM,36.0,30.0,79,30.24,10.0,SW,3.5,-,N/A,,Clear,230,2012-11-10 05:53:00
1:53 AM,34.0,28.9,82,30.24,10.0,Calm,Calm,-,N/A,,Clear,0,2012-11-10 06:53:00
2:53 AM,34.0,28.9,82,30.24,10.0,Calm,Calm,-,N/A,,Clear,0,2012-11-10 07:53:00
3:53 AM,30.9,28.9,92,30.25,10.0,Calm,Calm,-,N/A,,Clear,0,2012-11-10 08:53:00
4:53 AM,32.0,28.0,85,30.26,10.0,Calm,Calm,-,N/A,,Clear,0,2012-11-10 09:53:00
5:53 AM,30.0,27.0,88,30.28,10.0,SW,3.5,-,N/A,,Clear,220,2012-11-10 10:53:00
6:53 AM,30.0,28.0,92,30.30,9.0,Calm,Calm,-,N/A,,Clear,0,2012-11-10 11:53:00
7:53 AM,34.0,30.0,85,30.32,10.0,Calm,Calm,-,N/A,,Clear,0,2012-11-10 12:53:00
8:53 AM,46.0,35.1,66,30.33,10.0,Calm,Calm,-,N/A,,Clear,0,2012-11-10 13:53:00
9:53 AM,52.0,35.1,53,30.34,10.0,SW,3.5,-,N/A,,Clear,220,2012-11-10 14:53:00
10:53 AM,61.0,35.1,38,30.33,10.0,Calm,Calm,-,N/A,,Clear,0,2012-11-10 15:53:00
11:53 AM,66.9,35.1,31,30.31,10.0,Variable,4.6,-,N/A,,Clear,0,2012-11-10 16:53:00
12:53 PM,72.0,33.1,24,30.27,10.0,SW,6.9,-,N/A,,Clear,230,2012-11-10 17:53:00
1:53 PM,75.0,30.9,20,30.26,10.0,SSW,6.9,-,N/A,,Clear,210,2012-11-10 18:53:00
2:53 PM,75.0,28.9,18,30.25,10.0,SSW,6.9,-,N/A,,Clear,210,2012-11-10 19:53:00
3:53 PM,73.9,28.0,18,30.26,10.0,SW,5.8,-,N/A,,Clear,220,2012-11-10 20:53:00
4:53 PM,69.1,30.9,24,30.28,10.0,Calm,Calm,-,N/A,,Clear,0,2012-11-10 21:53:00
5:53 PM,59.0,30.9,35,30.31,10.0,Calm,Calm,-,N/A,,Clear,0,2012-11-10 22:53:00
6:53 PM,55.9,32.0,40,30.32,10.0,Calm,Calm,-,N/A,,Clear,0,2012-11-10 23:53:00
7:53 PM,52.0,32.0,47,30.33,10.0,Calm,Calm,-,N/A,,Clear,0,2012-11-11 00:53:00
8:53 PM,50.0,33.1,52,30.34,10.0,Calm,Calm,-,N/A,,Clear,0,2012-11-11 01:53:00
9:53 PM,46.9,32.0,56,30.35,10.0,Calm,Calm,-,N/A,,Clear,0,2012-11-11 02:53:00
11:53 PM,42.1,33.1,70,30.36,10.0,Calm,Calm,-,N/A,,Clear,0,2012-11-11 04:53:00